Вернуться в каталог

THOR ABLESTAR DEB

АктивенLEO
NORAD 230·DEBRIS·🇺🇸 United States

Запущен Jun 29, 1961 с Cape Canaveral Space Force Station

Loading…

Ближайшие Пролёты (ближайшие 24 часа)

TLE

СвежийSource: Space-Track

Эпоха: Sep 7, 2026, 07:33 UTC

1 00230U 61015BN  26250.31469849  .00000008  00000-0  59110-4 0  9995
2 00230  66.8826 207.1881 0087144 115.7570 245.2539 13.96821429317220

Отслеживайте THOR ABLESTAR DEB в реальном времени с AllMySat

Download on the App Store